| time (UTC) | temp F | wind direction | speed MPH | gust MPH | rain 1hr in | rain 24hr in | rain mn in | humidity % | barometer mb |
| 20260505205032 | 53 | 36 | 1.0 | 9.0 | 0.00 | 0.00 | 0.00 | 100 | 1012.7 |
| 20260505204542 | 53 | 45 | 2.0 | 9.0 | 0.00 | 0.00 | 0.00 | 100 | 1012.7 |
| 20260505204033 | 53 | 42 | 3.0 | 9.0 | 0.00 | 0.00 | 0.00 | 100 | 1012.7 |
| 20260505203532 | 53 | 37 | 1.0 | 5.0 | 0.00 | 0.00 | 0.00 | 100 | 1012.7 |
| 20260505203051 | 53 | 49 | 1.0 | 5.0 | 0.00 | 0.00 | 0.00 | 100 | 1012.7 |
| 20260505202532 | 53 | 57 | 2.0 | 5.0 | 0.00 | 0.00 | 0.00 | 100 | 1012.6 |
| 20260505202031 | 54 | 11 | 2.0 | 5.0 | 0.00 | 0.00 | 0.00 | 100 | 1012.4 |
| 20260505201545 | 54 | 62 | 1.0 | 6.0 | 0.00 | 0.00 | 0.00 | 100 | 1012.4 |
| 20260505201032 | 54 | 46 | 1.0 | 6.0 | 0.00 | 0.00 | 0.00 | 100 | 1012.3 |
| 20260505200534 | 54 | 352 | 1.0 | 5.0 | 0.00 | 0.00 | 0.00 | 100 | 1012.4 |
| 20260505200045 | 54 | 51 | 2.0 | 6.0 | 0.00 | 0.00 | 0.00 | 100 | 1012.3 |
| 20260505195534 | 54 | 34 | 1.0 | 6.0 | 0.00 | 0.00 | 0.00 | 100 | 1012.3 |
| 20260505195033 | 54 | 36 | 1.0 | 9.0 | 0.00 | 0.00 | 0.00 | 100 | 1012.2 |
| 20260505194545 | 54 | 61 | 2.0 | 9.0 | 0.00 | 0.00 | 0.00 | 100 | 1012.1 |
| 20260505194034 | 55 | 24 | 2.0 | 5.0 | 0.00 | 0.00 | 0.00 | 100 | 1012.0 |
| 20260505193532 | 55 | 32 | 2.0 | 5.0 | 0.00 | 0.00 | 0.00 | 100 | 1012.0 |
| 20260505193042 | 55 | 82 | 1.0 | 4.0 | 0.00 | 0.00 | 0.00 | 100 | 1011.8 |
| 20260505192535 | 55 | 53 | 1.0 | 4.0 | 0.00 | 0.00 | 0.00 | 100 | 1011.8 |
| 20260505192032 | 55 | 67 | 1.0 | 5.0 | 0.00 | 0.00 | 0.00 | 100 | 1011.8 |
| 20260505191546 | 56 | 34 | 1.0 | 5.0 | 0.00 | 0.00 | 0.00 | 100 | 1011.6 |
| 20260505191032 | 56 | 57 | 2.0 | 5.0 | 0.00 | 0.00 | 0.00 | 100 | 1011.6 |
| 20260505190532 | 56 | 58 | 1.0 | 3.0 | 0.00 | 0.00 | 0.00 | 100 | 1011.6 |
| 20260505190049 | 56 | 67 | 1.0 | 3.0 | 0.00 | 0.00 | 0.00 | 100 | 1011.7 |
| 20260505185534 | 56 | 11 | 0.0 | 4.0 | 0.00 | 0.00 | 0.00 | 100 | 1011.7 |
| 20260505185032 | 56 | 0 | 1.0 | 4.0 | 0.00 | 0.00 | 0.00 | 100 | 1011.6 |
| 20260505184546 | 56 | 55 | 1.0 | 4.0 | 0.00 | 0.00 | 0.00 | 100 | 1011.5 |
| 20260505184032 | 56 | 55 | 2.0 | 4.0 | 0.00 | 0.00 | 0.00 | 100 | 1011.4 |
| 20260505183534 | 56 | 53 | 1.0 | 6.0 | 0.00 | 0.00 | 0.00 | 100 | 1011.5 |
| 20260505183047 | 56 | 90 | 1.0 | 6.0 | 0.00 | 0.00 | 0.00 | 100 | 1011.5 |
| 20260505182535 | 56 | 0 | 1.0 | 6.0 | 0.00 | 0.00 | 0.00 | 100 | 1011.6 |
| 20260505182031 | 57 | 30 | 2.0 | 5.0 | 0.00 | 0.00 | 0.00 | 100 | 1011.5 |
| 20260505181549 | 57 | 0 | 1.0 | 4.0 | 0.00 | 0.00 | 0.00 | 100 | 1011.5 |
| 20260505181037 | 57 | 81 | 1.0 | 5.0 | 0.00 | 0.00 | 0.00 | 100 | 1011.6 |
| 20260505180536 | 57 | 78 | 2.0 | 5.0 | 0.00 | 0.00 | 0.00 | 100 | 1011.7 |
| 20260505180046 | 57 | 19 | 1.0 | 5.0 | 0.00 | 0.00 | 0.00 | 100 | 1011.7 |
| 20260505175532 | 57 | 66 | 2.0 | 5.0 | 0.00 | 0.00 | 0.00 | 100 | 1011.7 |
| 20260505175033 | 57 | 18 | 1.0 | 7.0 | 0.00 | 0.00 | 0.00 | 100 | 1011.7 |
| 20260505174537 | 57 | 0 | 1.0 | 7.0 | 0.00 | 0.00 | 0.00 | 100 | 1011.6 |
| 20260505174032 | 58 | 27 | 2.0 | 6.0 | 0.00 | 0.00 | 0.00 | 100 | 1011.6 |
| 20260505173533 | 58 | 58 | 2.0 | 5.0 | 0.00 | 0.00 | 0.00 | 100 | 1011.7 |
| 20260505173042 | 58 | 55 | 1.0 | 5.0 | 0.00 | 0.00 | 0.00 | 100 | 1011.7 |
| 20260505172531 | 58 | 69 | 1.0 | 5.0 | 0.00 | 0.00 | 0.00 | 100 | 1011.6 |
| 20260505172033 | 58 | 13 | 2.0 | 9.0 | 0.00 | 0.00 | 0.00 | 100 | 1011.6 |
| 20260505171543 | 58 | 55 | 2.0 | 9.0 | 0.00 | 0.00 | 0.00 | 100 | 1011.6 |
| 20260505171032 | 58 | 36 | 2.0 | 9.0 | 0.00 | 0.00 | 0.00 | 100 | 1011.7 |
| 20260505170532 | 58 | 59 | 2.0 | 9.0 | 0.00 | 0.00 | 0.00 | 100 | 1011.6 |
| 20260505170043 | 59 | 13 | 2.0 | 10.0 | 0.00 | 0.00 | 0.00 | 100 | 1011.7 |
| 20260505165532 | 59 | 22 | 1.0 | 10.0 | 0.00 | 0.00 | 0.00 | 100 | 1011.7 |
| 20260505165034 | 59 | 49 | 2.0 | 7.0 | 0.00 | 0.00 | 0.00 | 100 | 1011.6 |
| 20260505164542 | 59 | 26 | 1.0 | 7.0 | 0.00 | 0.00 | 0.00 | 100 | 1011.5 |
| 20260505164033 | 59 | 11 | 2.0 | 7.0 | 0.00 | 0.00 | 0.00 | 100 | 1011.6 |
| 20260505163532 | 59 | 5 | 2.0 | 6.0 | 0.00 | 0.00 | 0.00 | 100 | 1011.4 |
| 20260505163044 | 59 | 30 | 1.0 | 8.0 | 0.00 | 0.00 | 0.00 | 100 | 1011.5 |
| 20260505162536 | 59 | 34 | 2.0 | 8.0 | 0.00 | 0.00 | 0.00 | 100 | 1011.7 |
| 20260505162032 | 59 | 46 | 3.0 | 7.0 | 0.00 | 0.00 | 0.00 | 100 | 1011.6 |
| 20260505161544 | 59 | 5 | 1.0 | 6.0 | 0.00 | 0.00 | 0.00 | 100 | 1011.6 |
| 20260505161036 | 59 | 22 | 2.0 | 6.0 | 0.00 | 0.00 | 0.00 | 100 | 1011.6 |
| 20260505160532 | 59 | 51 | 2.0 | 6.0 | 0.00 | 0.00 | 0.00 | 100 | 1011.6 |
| 20260505153053 | 60 | 43 | 4.0 | 9.0 | 0.00 | 0.00 | 0.00 | 100 | 1011.7 |
| 20260505152533 | 60 | 360 | 3.0 | 9.0 | 0.00 | 0.00 | 0.00 | 100 | 1011.7 |
| 20260505152033 | 60 | 5 | 3.0 | 7.0 | 0.00 | 0.00 | 0.00 | 100 | 1011.6 |
| 20260505151544 | 60 | 28 | 3.0 | 8.0 | 0.00 | 0.00 | 0.00 | 100 | 1011.7 |
| 20260505151032 | 61 | 61 | 2.0 | 8.0 | 0.00 | 0.00 | 0.00 | 100 | 1011.8 |
| 20260505150532 | 61 | 21 | 2.0 | 8.0 | 0.00 | 0.00 | 0.00 | 100 | 1011.7 |
| 20260505140532 | 62 | 36 | 4.0 | 12.0 | 0.00 | 0.00 | 0.00 | 100 | 1012.0 |
| 20260505125032 | 60 | 92 | 3.0 | 13.0 | 0.00 | 0.00 | 0.00 | 100 | 1012.2 |
| 20260505124551 | 60 | 5 | 7.0 | 13.0 | 0.00 | 0.00 | 0.00 | 100 | 1012.2 |
| 20260505124033 | 61 | 115 | 2.0 | 11.0 | 0.00 | 0.00 | 0.00 | 100 | 1012.1 |
| 20260505123531 | 60 | 27 | 4.0 | 11.0 | 0.00 | 0.00 | 0.00 | 100 | 1012.1 |
| 20260505123046 | 60 | 360 | 2.0 | 9.0 | 0.00 | 0.00 | 0.00 | 100 | 1012.2 |
| 20260505122533 | 60 | 37 | 3.0 | 9.0 | 0.00 | 0.00 | 0.00 | 100 | 1012.2 |
| 20260505122031 | 60 | 47 | 3.0 | 7.0 | 0.00 | 0.00 | 0.00 | 100 | 1012.2 |
| 20260505121550 | 59 | 0 | 2.0 | 7.0 | 0.00 | 0.00 | 0.00 | 100 | 1012.2 |
| 20260505121033 | 59 | 21 | 1.0 | 7.0 | 0.00 | 0.00 | 0.00 | 100 | 1012.1 |
| 20260505120535 | 59 | 360 | 2.0 | 9.0 | 0.00 | 0.00 | 0.00 | 100 | 1012.3 |
| 20260505120105 | 58 | 31 | 3.0 | 9.0 | 0.00 | 0.00 | 0.00 | 100 | 1012.3 |
| 20260505115533 | 59 | 0 | 3.0 | 9.0 | 0.00 | 0.00 | 0.00 | 100 | 1012.4 |
| 20260505115032 | 59 | 94 | 3.0 | 9.0 | 0.00 | 0.00 | 0.00 | 100 | 1012.3 |
| 20260505114543 | 59 | 0 | 3.0 | 10.0 | 0.00 | 0.00 | 0.00 | 100 | 1012.3 |
| 20260505114032 | 59 | 90 | 2.0 | 10.0 | 0.00 | 0.00 | 0.00 | 100 | 1012.4 |
| 20260505113533 | 59 | 21 | 3.0 | 10.0 | 0.00 | 0.00 | 0.00 | 100 | 1012.4 |
| 20260505113044 | 59 | 28 | 2.0 | 8.0 | 0.00 | 0.00 | 0.00 | 100 | 1012.5 |
| 20260505112532 | 58 | 55 | 3.0 | 14.0 | 0.00 | 0.00 | 0.00 | 100 | 1012.5 |
| 20260505112033 | 58 | 29 | 4.0 | 14.0 | 0.00 | 0.00 | 0.00 | 100 | 1012.5 |
| 20260505111544 | 58 | 37 | 4.0 | 10.0 | 0.00 | 0.00 | 0.00 | 100 | 1012.5 |
| 20260505111033 | 58 | 30 | 3.0 | 12.0 | 0.00 | 0.00 | 0.00 | 100 | 1012.6 |
| 20260505110532 | 58 | 31 | 5.0 | 12.0 | 0.00 | 0.00 | 0.00 | 100 | 1012.6 |
| 20260505102033 | 56 | 142 | 4.0 | 12.0 | 0.00 | 0.00 | 0.00 | 100 | 1012.7 |
| 20260505101545 | 56 | 51 | 4.0 | 12.0 | 0.00 | 0.00 | 0.00 | 100 | 1012.7 |
| 20260505101032 | 56 | 10 | 2.0 | 9.0 | 0.00 | 0.00 | 0.00 | 100 | 1012.7 |
| 20260505100532 | 56 | 360 | 3.0 | 9.0 | 0.00 | 0.00 | 0.00 | 100 | 1012.8 |
| 20260505100038 | 56 | 65 | 2.0 | 10.0 | 0.00 | 0.00 | 0.00 | 100 | 1012.9 |
| 20260505095532 | 55 | 11 | 4.0 | 10.0 | 0.00 | 0.00 | 0.00 | 100 | 1012.9 |
| 20260505095034 | 55 | 360 | 2.0 | 11.0 | 0.00 | 0.00 | 0.00 | 100 | 1013.0 |
| 20260505094550 | 55 | 28 | 4.0 | 11.0 | 0.00 | 0.00 | 0.00 | 100 | 1013.0 |
| 20260505094034 | 55 | 360 | 3.0 | 8.0 | 0.00 | 0.00 | 0.00 | 100 | 1013.0 |
| 20260505093532 | 55 | 11 | 3.0 | 8.0 | 0.00 | 0.00 | 0.00 | 100 | 1013.1 |
| 20260505093052 | 55 | 88 | 3.0 | 10.0 | 0.00 | 0.00 | 0.00 | 100 | 1013.1 |
| 20260505092534 | 55 | 39 | 4.0 | 10.0 | 0.00 | 0.00 | 0.00 | 100 | 1013.2 |
| 20260505092033 | 55 | 39 | 3.0 | 10.0 | 0.00 | 0.00 | 0.00 | 100 | 1013.1 |
| 20260505091543 | 55 | 349 | 4.0 | 10.0 | 0.00 | 0.00 | 0.00 | 100 | 1013.1 |
| 20260505091035 | 55 | 13 | 4.0 | 9.0 | 0.00 | 0.00 | 0.00 | 100 | 1013.2 |
| 20260505090532 | 55 | 15 | 3.0 | 10.0 | 0.00 | 0.00 | 0.00 | 100 | 1013.1 |
| 20260505090056 | 54 | 350 | 3.0 | 10.0 | 0.00 | 0.00 | 0.00 | 100 | 1013.2 |
| 20260505085537 | 54 | 17 | 5.0 | 10.0 | 0.00 | 0.00 | 0.00 | 100 | 1013.2 |
| 20260505085033 | 54 | 49 | 3.0 | 10.0 | 0.00 | 0.00 | 0.00 | 100 | 1013.2 |
| 20260505084538 | 54 | 72 | 4.0 | 15.0 | 0.00 | 0.00 | 0.00 | 100 | 1013.2 |
| 20260505084033 | 54 | 32 | 5.0 | 15.0 | 0.00 | 0.00 | 0.00 | 100 | 1013.2 |
| 20260505083534 | 54 | 5 | 5.0 | 11.0 | 0.00 | 0.00 | 0.00 | 100 | 1013.2 |
| 20260505083101 | 53 | 81 | 3.0 | 11.0 | 0.00 | 0.00 | 0.00 | 100 | 1013.2 |
| 20260505082530 | 53 | 24 | 3.0 | 11.0 | 0.00 | 0.00 | 0.00 | 100 | 1013.2 |
| 20260505082031 | 53 | 17 | 3.0 | 11.0 | 0.00 | 0.00 | 0.00 | 100 | 1013.3 |
| 20260505081544 | 53 | 30 | 5.0 | 11.0 | 0.00 | 0.00 | 0.00 | 100 | 1013.2 |
| 20260505081034 | 54 | 55 | 4.0 | 10.0 | 0.00 | 0.00 | 0.00 | 100 | 1013.3 |
| 20260505080533 | 54 | 40 | 4.0 | 10.0 | 0.00 | 0.00 | 0.00 | 100 | 1013.3 |
| 20260505080044 | 54 | 58 | 3.0 | 9.0 | 0.00 | 0.00 | 0.00 | 100 | 1013.3 |
| 20260505075532 | 53 | 5 | 4.0 | 10.0 | 0.00 | 0.00 | 0.00 | 100 | 1013.2 |
| 20260505075033 | 53 | 17 | 3.0 | 10.0 | 0.00 | 0.00 | 0.00 | 100 | 1013.2 |
| 20260505074542 | 53 | 30 | 4.0 | 10.0 | 0.00 | 0.00 | 0.00 | 100 | 1013.2 |
| 20260505074033 | 53 | 20 | 3.0 | 10.0 | 0.00 | 0.00 | 0.00 | 100 | 1013.3 |
| 20260505073532 | 53 | 5 | 1.0 | 10.0 | 0.00 | 0.00 | 0.00 | 100 | 1013.2 |
| 20260505073042 | 53 | 17 | 4.0 | 10.0 | 0.00 | 0.00 | 0.00 | 100 | 1013.2 |
| 20260505072532 | 53 | 13 | 4.0 | 11.0 | 0.00 | 0.00 | 0.00 | 100 | 1013.2 |
| 20260505072033 | 53 | 30 | 4.0 | 13.0 | 0.00 | 0.00 | 0.00 | 100 | 1013.1 |
| 20260505071544 | 53 | 360 | 3.0 | 13.0 | 0.00 | 0.00 | 0.00 | 100 | 1013.2 |
| 20260505071033 | 53 | 39 | 4.0 | 13.0 | 0.00 | 0.00 | 0.00 | 100 | 1013.1 |
| 20260505070532 | 53 | 352 | 4.0 | 10.0 | 0.00 | 0.00 | 0.00 | 100 | 1013.3 |
| 20260505070048 | 53 | 58 | 4.0 | 10.0 | 0.00 | 0.00 | 0.00 | 100 | 1013.2 |
| 20260505065533 | 53 | 69 | 4.0 | 10.0 | 0.00 | 0.00 | 0.00 | 100 | 1013.2 |
| 20260505065031 | 52 | 15 | 3.0 | 8.0 | 0.00 | 0.00 | 0.00 | 100 | 1013.3 |
| 20260505064537 | 52 | 59 | 1.0 | 8.0 | 0.00 | 0.00 | 0.00 | 100 | 1013.4 |
| 20260505064032 | 52 | 64 | 2.0 | 8.0 | 0.00 | 0.00 | 0.00 | 100 | 1013.4 |
| 20260505063533 | 51 | 27 | 2.0 | 10.0 | 0.00 | 0.00 | 0.00 | 100 | 1013.4 |
| 20260505063043 | 51 | 360 | 3.0 | 10.0 | 0.00 | 0.00 | 0.00 | 100 | 1013.5 |
| 20260505062532 | 51 | 34 | 4.0 | 9.0 | 0.00 | 0.00 | 0.00 | 100 | 1013.4 |
| 20260505062032 | 51 | 360 | 2.0 | 9.0 | 0.00 | 0.00 | 0.00 | 100 | 1013.4 |
| 20260505061608 | 50 | 32 | 3.0 | 9.0 | 0.00 | 0.00 | 0.00 | 100 | 1013.4 |
| 20260505061034 | 50 | 61 | 1.0 | 8.0 | 0.00 | 0.00 | 0.00 | 100 | 1013.4 |
| 20260505060533 | 50 | 13 | 3.0 | 7.0 | 0.00 | 0.00 | 0.00 | 100 | 1013.4 |
| 20260505060044 | 50 | 21 | 2.0 | 7.0 | 0.00 | 0.00 | 0.00 | 100 | 1013.3 |
| 20260505055532 | 50 | 5 | 2.0 | 7.0 | 0.00 | 0.00 | 0.00 | 100 | 1013.3 |
| 20260505055032 | 50 | 22 | 2.0 | 6.0 | 0.00 | 0.00 | 0.00 | 100 | 1013.3 |
| 20260505054545 | 50 | 11 | 1.0 | 5.0 | 0.00 | 0.00 | 0.00 | 100 | 1013.2 |
| 20260505054032 | 50 | 360 | 2.0 | 5.0 | 0.00 | 0.00 | 0.00 | 100 | 1013.4 |
| 20260505053532 | 50 | 11 | 1.0 | 5.0 | 0.00 | 0.00 | 0.00 | 100 | 1013.4 |
| 20260505053045 | 49 | 27 | 1.0 | 6.0 | 0.00 | 0.00 | 0.00 | 100 | 1013.3 |
| 20260505052535 | 49 | 74 | 1.0 | 6.0 | 0.00 | 0.00 | 0.00 | 100 | 1013.3 |
| 20260505052035 | 49 | 34 | 2.0 | 6.0 | 0.00 | 0.00 | 0.00 | 100 | 1013.4 |
| 20260505051549 | 50 | 5 | 2.0 | 6.0 | 0.00 | 0.00 | 0.00 | 100 | 1013.4 |
| 20260505051035 | 49 | 13 | 2.0 | 7.0 | 0.00 | 0.00 | 0.00 | 100 | 1013.4 |
| 20260505050533 | 49 | 360 | 2.0 | 7.0 | 0.00 | 0.00 | 0.00 | 100 | 1013.3 |
| 20260505041541 | 50 | 0 | 0.0 | 3.0 | 0.00 | 0.00 | 0.00 | 100 | 1013.6 |
| 20260505041034 | 50 | 24 | 0.0 | 3.0 | 0.00 | 0.00 | 0.00 | 100 | 1013.7 |
| 20260505040534 | 50 | 0 | 0.0 | 3.0 | 0.00 | 0.00 | 0.00 | 100 | 1013.7 |
| 20260505040058 | 50 | 0 | 0.0 | 3.0 | 0.00 | 0.00 | 0.00 | 100 | 1013.7 |
| 20260505035534 | 50 | 32 | 0.0 | 4.0 | 0.00 | 0.00 | 0.00 | 100 | 1013.7 |
| 20260505035035 | 50 | 0 | 1.0 | 4.0 | 0.00 | 0.00 | 0.00 | 100 | 1013.7 |
| 20260505034544 | 50 | 0 | 1.0 | 4.0 | 0.00 | 0.00 | 0.00 | 100 | 1013.8 |
| 20260505034033 | 50 | 17 | 1.0 | 4.0 | 0.00 | 0.00 | 0.00 | 100 | 1013.8 |
| 20260505033533 | 50 | 44 | 1.0 | 3.0 | 0.00 | 0.00 | 0.00 | 100 | 1013.8 |
| 20260505033045 | 50 | 36 | 0.0 | 3.0 | 0.00 | 0.00 | 0.00 | 100 | 1013.9 |
| 20260505032534 | 50 | 42 | 0.0 | 2.0 | 0.00 | 0.00 | 0.00 | 100 | 1013.9 |
| 20260505032036 | 50 | 0 | 0.0 | 3.0 | 0.00 | 0.00 | 0.00 | 100 | 1013.9 |
| 20260505031550 | 50 | 0 | 0.0 | 3.0 | 0.00 | 0.00 | 0.00 | 100 | 1013.9 |
| 20260505031032 | 50 | 40 | 0.0 | 4.0 | 0.00 | 0.00 | 0.00 | 100 | 1013.9 |
| 20260505030532 | 50 | 64 | 0.0 | 4.0 | 0.00 | 0.00 | 0.00 | 100 | 1013.9 |
| 20260505030044 | 50 | 40 | 0.0 | 3.0 | 0.00 | 0.00 | 0.00 | 100 | 1013.8 |
| 20260505025533 | 50 | 0 | 0.0 | 3.0 | 0.00 | 0.00 | 0.00 | 100 | 1013.9 |
| 20260505025035 | 50 | 0 | 0.0 | 3.0 | 0.00 | 0.00 | 0.00 | 100 | 1013.9 |
| 20260505024542 | 50 | 0 | 0.0 | 5.0 | 0.00 | 0.00 | 0.00 | 100 | 1014.0 |
| 20260505024035 | 51 | 66 | 0.0 | 5.0 | 0.00 | 0.00 | 0.00 | 100 | 1014.0 |
| 20260505023532 | 51 | 56 | 1.0 | 5.0 | 0.00 | 0.00 | 0.00 | 100 | 1014.0 |
| 20260505023042 | 51 | 0 | 0.0 | 4.0 | 0.00 | 0.00 | 0.00 | 100 | 1014.1 |
| 20260505022531 | 51 | 44 | 1.0 | 5.0 | 0.00 | 0.00 | 0.00 | 100 | 1014.0 |
| 20260505022032 | 51 | 21 | 1.0 | 5.0 | 0.00 | 0.00 | 0.00 | 100 | 1014.1 |
| 20260505021544 | 51 | 51 | 1.0 | 5.0 | 0.00 | 0.00 | 0.00 | 100 | 1014.0 |
| 20260505021033 | 51 | 0 | 1.0 | 4.0 | 0.00 | 0.00 | 0.00 | 100 | 1014.2 |
| 20260505020532 | 51 | 55 | 0.0 | 4.0 | 0.00 | 0.00 | 0.00 | 100 | 1014.1 |
| 20260505020044 | 51 | 37 | 1.0 | 4.0 | 0.00 | 0.00 | 0.00 | 100 | 1014.1 |
| 20260505015533 | 51 | 52 | 1.0 | 4.0 | 0.00 | 0.00 | 0.00 | 100 | 1014.1 |
| 20260505015031 | 51 | 72 | 0.0 | 2.0 | 0.00 | 0.00 | 0.00 | 100 | 1014.2 |
| 20260505014543 | 51 | 0 | 0.0 | 3.0 | 0.00 | 0.00 | 0.00 | 100 | 1014.2 |
| 20260505014034 | 51 | 63 | 0.0 | 4.0 | 0.00 | 0.00 | 0.00 | 100 | 1014.1 |
| 20260505013531 | 51 | 0 | 0.0 | 4.0 | 0.00 | 0.00 | 0.00 | 100 | 1014.3 |
| 20260505013042 | 51 | 0 | 0.0 | 4.0 | 0.00 | 0.00 | 0.00 | 100 | 1014.4 |
| 20260505012531 | 51 | 31 | 0.0 | 4.0 | 0.00 | 0.00 | 0.00 | 100 | 1014.2 |
| 20260505012035 | 51 | 0 | 1.0 | 4.0 | 0.00 | 0.00 | 0.00 | 100 | 1014.2 |
| 20260505011545 | 51 | 19 | 1.0 | 4.0 | 0.00 | 0.00 | 0.00 | 100 | 1014.1 |
| 20260505011032 | 51 | 60 | 1.0 | 4.0 | 0.00 | 0.00 | 0.00 | 100 | 1014.1 |
| 20260505010531 | 51 | 61 | 1.0 | 3.0 | 0.00 | 0.00 | 0.00 | 100 | 1014.4 |
| 20260505010055 | 51 | 44 | 0.0 | 4.0 | 0.00 | 0.00 | 0.00 | 100 | 1014.5 |
| 20260505005532 | 51 | 32 | 0.0 | 4.0 | 0.00 | 0.00 | 0.00 | 100 | 1014.4 |
| 20260505005031 | 51 | 57 | 1.0 | 4.0 | 0.00 | 0.00 | 0.00 | 100 | 1014.5 |
| 20260505004544 | 51 | 46 | 0.0 | 3.0 | 0.00 | 0.00 | 0.00 | 100 | 1014.5 |
| 20260505004033 | 51 | 0 | 1.0 | 3.0 | 0.00 | 0.00 | 0.00 | 100 | 1014.6 |
| 20260505003533 | 51 | 0 | 0.0 | 3.0 | 0.00 | 0.00 | 0.00 | 100 | 1014.6 |
| 20260505003043 | 52 | 24 | 0.0 | 3.0 | 0.00 | 0.00 | 0.00 | 100 | 1014.5 |
| 20260505002532 | 52 | 56 | 0.0 | 6.0 | 0.00 | 0.00 | 0.00 | 100 | 1014.7 |
| 20260505002032 | 52 | 0 | 0.0 | 6.0 | 0.00 | 0.00 | 0.00 | 100 | 1014.8 |
| 20260505001542 | 52 | 17 | 2.0 | 6.0 | 0.00 | 0.00 | 0.00 | 100 | 1014.7 |
| 20260505001031 | 52 | 39 | 1.0 | 7.0 | 0.00 | 0.00 | 0.00 | 100 | 1014.6 |
| 20260505000529 | 52 | 65 | 1.0 | 9.0 | 0.00 | 0.00 | 0.00 | 100 | 1014.8 |
| 20260505000049 | 52 | 46 | 1.0 | 9.0 | 0.00 | 0.00 | 0.00 | 100 | 1014.7 |
| 20260504235534 | 52 | 26 | 1.0 | 9.0 | 0.00 | 0.00 | 0.00 | 100 | 1014.7 |
| 20260504235032 | 52 | 41 | 1.0 | 7.0 | 0.00 | 0.00 | 0.00 | 100 | 1014.7 |
| 20260504234538 | 52 | 77 | 0.0 | 7.0 | 0.00 | 0.00 | 0.00 | 100 | 1014.7 |
| 20260504234032 | 52 | 84 | 1.0 | 6.0 | 0.00 | 0.00 | 0.00 | 100 | 1014.6 |
| 20260504233532 | 52 | 31 | 1.0 | 4.0 | 0.00 | 0.00 | 0.00 | 100 | 1014.7 |
| 20260504233037 | 52 | 30 | 0.0 | 5.0 | 0.00 | 0.00 | 0.00 | 100 | 1014.7 |
| 20260504232533 | 52 | 28 | 1.0 | 5.0 | 0.00 | 0.00 | 0.00 | 100 | 1014.7 |
| 20260504232034 | 52 | 51 | 1.0 | 9.0 | 0.00 | 0.00 | 0.00 | 100 | 1014.6 |
| 20260504231541 | 52 | 49 | 2.0 | 9.0 | 0.00 | 0.00 | 0.00 | 100 | 1014.6 |
| 20260504231033 | 52 | 30 | 2.0 | 9.0 | 0.00 | 0.00 | 0.00 | 100 | 1014.7 |
| 20260504230532 | 53 | 68 | 2.0 | 9.0 | 0.00 | 0.00 | 0.00 | 100 | 1014.7 |
| 20260504230043 | 53 | 41 | 1.0 | 6.0 | 0.00 | 0.00 | 0.00 | 100 | 1014.9 |
| 20260504225535 | 53 | 44 | 2.0 | 7.0 | 0.00 | 0.00 | 0.00 | 100 | 1014.8 |
| 20260504225034 | 53 | 0 | 2.0 | 7.0 | 0.00 | 0.00 | 0.00 | 100 | 1014.9 |
| 20260504224541 | 53 | 51 | 1.0 | 4.0 | 0.00 | 0.00 | 0.00 | 100 | 1015.0 |
| 20260504224034 | 53 | 0 | 1.0 | 4.0 | 0.00 | 0.00 | 0.00 | 100 | 1015.0 |
| 20260504223532 | 53 | 36 | 1.0 | 4.0 | 0.00 | 0.00 | 0.00 | 100 | 1015.0 |
| 20260504223038 | 53 | 0 | 0.0 | 4.0 | 0.00 | 0.00 | 0.00 | 100 | 1015.0 |
| 20260504222531 | 53 | 0 | 0.0 | 3.0 | 0.00 | 0.00 | 0.00 | 100 | 1014.9 |
| 20260504222031 | 53 | 0 | 0.0 | 3.0 | 0.00 | 0.00 | 0.00 | 100 | 1014.9 |
| 20260504221547 | 53 | 42 | 0.0 | 4.0 | 0.00 | 0.00 | 0.00 | 100 | 1015.0 |
| 20260504221033 | 54 | 38 | 1.0 | 4.0 | 0.00 | 0.00 | 0.00 | 100 | 1014.9 |
| 20260504220533 | 54 | 32 | 0.0 | 4.0 | 0.00 | 0.00 | 0.00 | 100 | 1015.0 |
| 20260504220053 | 54 | 0 | 0.0 | 3.0 | 0.00 | 0.00 | 0.00 | 100 | 1015.0 |
| 20260504215532 | 54 | 32 | 0.0 | 4.0 | 0.00 | 0.00 | 0.00 | 100 | 1015.0 |
| 20260504215032 | 54 | 0 | 0.0 | 4.0 | 0.00 | 0.00 | 0.00 | 100 | 1014.9 |
| 20260504214544 | 54 | 53 | 0.0 | 4.0 | 0.00 | 0.00 | 0.00 | 100 | 1014.9 |
| 20260504214032 | 54 | 45 | 0.0 | 3.0 | 0.00 | 0.00 | 0.00 | 100 | 1014.9 |
| 20260504213533 | 54 | 66 | 1.0 | 3.0 | 0.00 | 0.00 | 0.00 | 100 | 1015.0 |
| 20260504213058 | 54 | 0 | 0.0 | 5.0 | 0.00 | 0.00 | 0.00 | 100 | 1015.0 |
| 20260504212532 | 54 | 0 | 0.0 | 5.0 | 0.00 | 0.00 | 0.00 | 100 | 1015.0 |
| 20260504212032 | 54 | 13 | 1.0 | 5.0 | 0.00 | 0.00 | 0.00 | 100 | 1015.2 |
| 20260504211542 | 54 | 45 | 1.0 | 3.0 | 0.00 | 0.00 | 0.00 | 100 | 1015.1 |
| 20260504211033 | 54 | 44 | 0.0 | 3.0 | 0.00 | 0.00 | 0.00 | 100 | 1015.2 |
| 20260504210533 | 54 | 51 | 0.0 | 3.0 | 0.00 | 0.00 | 0.00 | 100 | 1015.2 |
| 20260504210037 | 54 | 106 | 0.0 | 4.0 | 0.00 | 0.00 | 0.00 | 100 | 1015.1 |
| 20260504205533 | 55 | 0 | 1.0 | 4.0 | 0.00 | 0.00 | 0.00 | 100 | 1015.2 |